When you browse on this site, cookies collect data to enhance your experience and personalize the content and advertising you see.
Visit our Privacy Policy to learn more. By continuing to use the site, you agree to this use of cookies and data.
  • In Germany
  • List of Countries
  • For 7 days
  • Water Temperature
  • Weather Map
  • Weather Widgets
  • user-avatar
    Login

    Hourly Weather Zaranj

    Today, 23 January, Thursday

    Time Temperature Precipitation Wind Pressure Humidity
    00:00 +14°C° 0 mm 2 mps 723 mmHg 57%
    01:00 +12°C° 0 mm 3 mps 723 mmHg 58%
    02:00 +13°C° 0 mm 2 mps 723 mmHg 60%
    03:00 +12°C° 0 mm 2 mps 722 mmHg 61%
    04:00 +12°C° 0 mm 2 mps 722 mmHg 64%
    05:00 +12°C° 0 mm 2 mps 722 mmHg 64%
    06:00 +10°C° 0 mm 2 mps 722 mmHg 64%
    07:00 +10°C° 0 mm 3 mps 722 mmHg 65%
    08:00 +11°C° 0 mm 3 mps 722 mmHg 62%
    09:00 +12°C° 0 mm 3 mps 722 mmHg 59%
    10:00 +14°C° 0 mm 3 mps 722 mmHg 56%
    11:00 +15°C° 0 mm 4 mps 722 mmHg 54%
    12:00 +17°C° 0 mm 4 mps 721 mmHg 51%
    13:00 +18°C° 0 mm 4 mps 720 mmHg 49%
    14:00 +19°C° 0 mm 5 mps 720 mmHg 48%
    15:00 +19°C° 0 mm 5 mps 719 mmHg 46%
    16:00 +20°C° 0 mm 5 mps 718 mmHg 45%
    17:00 +19°C° 0 mm 4 mps 718 mmHg 50%
    18:00 +18°C° 0 mm 4 mps 718 mmHg 54%
    19:00 +17°C° 0 mm 3 mps 718 mmHg 59%
    20:00 +15°C° 0 mm 4 mps 718 mmHg 60%
    21:00 +15°C° 0 mm 4 mps 718 mmHg 62%
    22:00 +15°C° 0 mm 5 mps 717 mmHg 64%
    23:00 +15°C° 0.3 mm 6 mps 717 mmHg 65%

    Tomorrow, 24 January, Friday

    Time Temperature Precipitation Wind Pressure Humidity
    00:00 +15°C° 0.3 mm 6 mps 717 mmHg 67%
    01:00 +14°C° 0.3 mm 7 mps 717 mmHg 68%
    02:00 +14°C° 0.1 mm 5 mps 717 mmHg 69%
    03:00 +13°C° 0.1 mm 4 mps 717 mmHg 69%
    04:00 +14°C° 0.1 mm 2 mps 717 mmHg 70%
    05:00 +13°C° 0.6 mm 3 mps 717 mmHg 75%
    06:00 +12°C° 0.6 mm 4 mps 717 mmHg 79%
    07:00 +12°C° 0.6 mm 5 mps 718 mmHg 84%
    08:00 +13°C° 0.1 mm 5 mps 718 mmHg 81%
    09:00 +13°C° 0.1 mm 4 mps 719 mmHg 78%
    10:00 +14°C° 0.1 mm 4 mps 719 mmHg 75%
    11:00 +15°C° 0 mm 4 mps 719 mmHg 72%
    12:00 +15°C° 0 mm 4 mps 719 mmHg 69%
    13:00 +17°C° 0 mm 4 mps 718 mmHg 67%
    14:00 +17°C° 0 mm 4 mps 718 mmHg 65%
    15:00 +16°C° 0 mm 5 mps 718 mmHg 64%
    16:00 +15°C° 0 mm 5 mps 717 mmHg 63%
    17:00 +15°C° 0 mm 5 mps 718 mmHg 67%
    18:00 +14°C° 0 mm 4 mps 718 mmHg 72%
    19:00 +13°C° 0 mm 4 mps 719 mmHg 76%
    20:00 +13°C° 0 mm 3 mps 719 mmHg 79%
    21:00 +12°C° 0 mm 3 mps 720 mmHg 81%
    22:00 +12°C° 0 mm 3 mps 720 mmHg 84%
    23:00 +11°C° 0 mm 3 mps 720 mmHg 85%

    Day after tomorrow, 25 January, Saturday

    Time Temperature Precipitation Wind Pressure Humidity
    00:00 +11°C° 0 mm 3 mps 720 mmHg 86%
    01:00 +11°C° 0 mm 3 mps 720 mmHg 87%
    02:00 +10°C° 0 mm 3 mps 720 mmHg 88%
    03:00 +10°C° 0 mm 3 mps 720 mmHg 88%
    04:00 +10°C° 0 mm 3 mps 720 mmHg 89%
    05:00 +9°C° 0 mm 3 mps 720 mmHg 89%
    06:00 +9°C° 0 mm 3 mps 721 mmHg 90%
    07:00 +9°C° 0 mm 3 mps 721 mmHg 90%
    08:00 +10°C° 0 mm 3 mps 721 mmHg 84%
    09:00 +11°C° 0 mm 3 mps 721 mmHg 77%
    10:00 +12°C° 0 mm 3 mps 722 mmHg 71%
    11:00 +13°C° 0 mm 3 mps 721 mmHg 66%
    12:00 +14°C° 0 mm 3 mps 721 mmHg 61%
    13:00 +16°C° 0 mm 2 mps 720 mmHg 56%
    14:00 +16°C° 0 mm 3 mps 720 mmHg 54%
    15:00 +17°C° 0 mm 3 mps 719 mmHg 52%
    16:00 +17°C° 0 mm 3 mps 719 mmHg 50%
    17:00 +16°C° 0 mm 3 mps 719 mmHg 52%
    18:00 +16°C° 0 mm 2 mps 719 mmHg 54%
    19:00 +15°C° 0 mm 2 mps 719 mmHg 55%
    20:00 +14°C° 0 mm 3 mps 720 mmHg 54%
    21:00 +13°C° 0 mm 3 mps 720 mmHg 54%
    22:00 +13°C° 0 mm 3 mps 720 mmHg 53%
    23:00 +13°C° 0 mm 4 mps 720 mmHg 54%

    26 January, Sunday

    Time Temperature Precipitation Wind Pressure Humidity
    00:00 +13°C° 0 mm 5 mps 719 mmHg 55%
    01:00 +12°C° 0 mm 5 mps 719 mmHg 56%
    02:00 +10°C° 0 mm 6 mps 719 mmHg 60%
    03:00 +9°C° 0 mm 7 mps 719 mmHg 64%
    04:00 +7°C° 0 mm 8 mps 718 mmHg 69%
    05:00 +7°C° 0 mm 8 mps 719 mmHg 69%
    06:00 +7°C° 0 mm 8 mps 719 mmHg 69%
    07:00 +7°C° 0 mm 8 mps 719 mmHg 69%
    08:00 +7°C° 0 mm 8 mps 719 mmHg 67%
    09:00 +8°C° 0 mm 7 mps 720 mmHg 66%
    10:00 +9°C° 0 mm 7 mps 720 mmHg 64%
    11:00 +10°C° 0 mm 7 mps 719 mmHg 60%
    12:00 +11°C° 0 mm 7 mps 719 mmHg 56%
    13:00 +13°C° 0 mm 6 mps 718 mmHg 53%
    14:00 +12°C° 0 mm 7 mps 718 mmHg 54%
    15:00 +12°C° 0 mm 7 mps 718 mmHg 54%
    16:00 +12°C° 0 mm 7 mps 719 mmHg 55%
    17:00 +11°C° 0 mm 7 mps 719 mmHg 58%
    18:00 +10°C° 0 mm 7 mps 719 mmHg 60%
    19:00 +9°C° 0 mm 7 mps 719 mmHg 63%
    20:00 +9°C° 0 mm 7 mps 719 mmHg 63%
    21:00 +8°C° 0 mm 7 mps 720 mmHg 63%
    22:00 +8°C° 0 mm 7 mps 720 mmHg 63%
    23:00 +8°C° 0 mm 7 mps 720 mmHg 63%

    27 January, Monday

    Time Temperature Precipitation Wind Pressure Humidity
    00:00 +6°C° 0 mm 7 mps 720 mmHg 63%
    01:00 +6°C° 0 mm 8 mps 719 mmHg 63%
    02:00 +6°C° 0 mm 7 mps 719 mmHg 63%
    03:00 +6°C° 0 mm 7 mps 719 mmHg 64%
    04:00 +6°C° 0 mm 7 mps 719 mmHg 64%
    05:00 +5°C° 0 mm 7 mps 719 mmHg 64%
    06:00 +5°C° 0 mm 6 mps 720 mmHg 65%
    07:00 +5°C° 0 mm 6 mps 720 mmHg 65%
    08:00 +6°C° 0 mm 7 mps 720 mmHg 60%
    09:00 +8°C° 0 mm 7 mps 721 mmHg 54%
    10:00 +9°C° 0 mm 8 mps 721 mmHg 48%
    11:00 +10°C° 0 mm 8 mps 721 mmHg 45%
    12:00 +11°C° 0 mm 8 mps 720 mmHg 41%
    13:00 +12°C° 0 mm 8 mps 720 mmHg 37%
    14:00 +12°C° 0 mm 8 mps 720 mmHg 36%
    15:00 +12°C° 0 mm 8 mps 720 mmHg 35%
    16:00 +12°C° 0 mm 8 mps 719 mmHg 34%
    17:00 +11°C° 0 mm 8 mps 720 mmHg 37%
    18:00 +10°C° 0 mm 8 mps 720 mmHg 39%
    19:00 +10°C° 0 mm 8 mps 720 mmHg 42%
    20:00 +8°C° 0 mm 9 mps 721 mmHg 43%
    21:00 +8°C° 0 mm 9 mps 721 mmHg 44%
    22:00 +7°C° 0 mm 10 mps 722 mmHg 45%
    23:00 +7°C° 0 mm 11 mps 722 mmHg 48%

    28 January, Tuesday

    Time Temperature Precipitation Wind Pressure Humidity
    00:00 +5°C° 0 mm 12 mps 721 mmHg 52%
    01:00 +4°C° 0 mm 13 mps 721 mmHg 56%
    02:00 +4°C° 0 mm 14 mps 721 mmHg 56%
    03:00 +4°C° 0 mm 14 mps 722 mmHg 56%
    04:00 +2°C° 0 mm 15 mps 722 mmHg 57%
    05:00 +2°C° 0 mm 15 mps 722 mmHg 56%
    06:00 +2°C° 0 mm 15 mps 723 mmHg 56%
    07:00 +1°C° 0 mm 15 mps 723 mmHg 56%
    08:00 +2°C° 0 mm 15 mps 723 mmHg 52%
    09:00 +4°C° 0 mm 15 mps 724 mmHg 48%
    10:00 +5°C° 0 mm 15 mps 724 mmHg 44%
    11:00 +6°C° 0 mm 15 mps 724 mmHg 41%
    12:00 +8°C° 0 mm 15 mps 723 mmHg 39%
    13:00 +8°C° 0 mm 15 mps 723 mmHg 36%
    14:00 +8°C° 0 mm 15 mps 723 mmHg 37%
    15:00 +8°C° 0 mm 15 mps 722 mmHg 38%
    16:00 +6°C° 0 mm 16 mps 722 mmHg 39%
    17:00 +5°C° 0 mm 15 mps 723 mmHg 42%
    18:00 +4°C° 0 mm 15 mps 723 mmHg 44%
    19:00 +4°C° 0 mm 15 mps 723 mmHg 46%
    20:00 +2°C° 0 mm 15 mps 724 mmHg 46%
    21:00 +2°C° 0 mm 15 mps 724 mmHg 47%
    22:00 +1°C° 0 mm 15 mps 724 mmHg 47%
    23:00 +1°C° 0 mm 14 mps 724 mmHg 48%
    Show more